TimePST,TemperatureF,Dew PointF,Humidity,Sea Level PressureIn,VisibilityMPH,Wind Direction,Wind SpeedMPH,Gust SpeedMPH,PrecipitationIn,Events,Conditions,WindDirDegrees,DateUTC
12:00 AM,-18.9,-25.8,71,29.98,-9999.0,NNE,1.2,-,N/A,,Unknown,30,2012-11-21 08:00:00
1:00 AM,-21.6,-28.5,71,29.98,-9999.0,NE,1.2,-,N/A,,Unknown,40,2012-11-21 09:00:00
2:00 AM,-22.0,-28.8,71,29.98,-9999.0,ENE,2.3,-,N/A,,Unknown,60,2012-11-21 10:00:00
3:00 AM,-23.1,-30.3,69,29.99,-9999.0,ENE,1.2,-,N/A,,Unknown,60,2012-11-21 11:00:00
4:00 AM,-22,-30,48,29.99,,North,2.3,,,,,10,2012-11-21 12:00:00
4:00 AM,-22.0,-30.3,65,29.99,-9999.0,North,2.3,-,N/A,,Unknown,10,2012-11-21 12:00:00
5:00 AM,-23.4,-31.5,66,30.00,-9999.0,NNE,2.3,-,N/A,,Unknown,20,2012-11-21 13:00:00
6:00 AM,-23.8,-31.9,66,30.01,-9999.0,North,1.2,-,N/A,,Unknown,10,2012-11-21 14:00:00
7:00 AM,-25.2,-33.0,67,30.02,-9999.0,NNE,1.2,-,N/A,,Unknown,30,2012-11-21 15:00:00
8:00 AM,-22.7,-29.6,70,30.04,-9999.0,NE,1.2,-,N/A,,Unknown,50,2012-11-21 16:00:00
9:00 AM,-18.2,-24.9,72,30.04,-9999.0,ENE,1.2,-,N/A,,Unknown,70,2012-11-21 17:00:00
10:00 AM,-16,-22,60,30.04,,Calm,Calm,,,,,,2012-11-21 18:00:00
10:00 AM,-15.5,-22.2,72,30.04,-9999.0,Calm,Calm,-,N/A,,Unknown,0,2012-11-21 18:00:00
11:00 AM,-13.5,-20.2,72,30.05,-9999.0,South,2.3,-,N/A,,Unknown,170,2012-11-21 19:00:00
12:00 PM,-11.2,-17.9,72,30.05,-9999.0,East,1.2,-,N/A,,Unknown,80,2012-11-21 20:00:00
1:00 PM,-8.1,-15.3,71,30.05,-9999.0,Calm,Calm,-,N/A,,Unknown,0,2012-11-21 21:00:00
2:00 PM,-5.8,-12.8,72,30.06,-9999.0,SSW,1.2,-,N/A,,Unknown,200,2012-11-21 22:00:00
3:00 PM,-4.4,-11.7,71,30.06,-9999.0,SSW,1.2,-,N/A,,Unknown,200,2012-11-21 23:00:00
4:00 PM,-6,-12,63,30.08,,Calm,Calm,,,,,,2012-11-22 00:00:00
4:00 PM,-5.6,-12.1,74,30.08,-9999.0,Calm,Calm,-,N/A,,Unknown,0,2012-11-22 00:00:00
5:00 PM,-9.9,-15.5,76,30.10,-9999.0,East,1.2,-,N/A,,Unknown,80,2012-11-22 01:00:00
6:00 PM,-12.8,-19.1,73,30.12,-9999.0,NE,1.2,-,N/A,,Unknown,50,2012-11-22 02:00:00
7:00 PM,-16.2,-22.2,74,30.15,-9999.0,NE,1.2,-,N/A,,Unknown,50,2012-11-22 03:00:00
8:00 PM,-18.6,-25.4,71,30.17,-9999.0,ENE,1.2,-,N/A,,Unknown,70,2012-11-22 04:00:00
9:00 PM,-19.5,-26.7,70,30.18,-9999.0,NE,1.2,-,N/A,,Unknown,40,2012-11-22 05:00:00
10:00 PM,-21,-28,55,30.19,,NE,1.2,,,,,40,2012-11-22 06:00:00
10:00 PM,-21.1,-27.9,71,30.19,-9999.0,NE,1.2,-,N/A,,Unknown,40,2012-11-22 06:00:00
11:00 PM,-21.8,-29.6,67,30.21,-9999.0,NE,2.3,-,N/A,,Unknown,40,2012-11-22 07:00:00